sat.trackr.live / text

‹ back to catalog

AE3VA

NORAD 64563 · 2025-135AM

PAYLOAD ACTIVE UNKNOWN

§ Identity

Operator
Country
JPN
Launch date
2025-06-23
Launch site
AFWTR
Launch vehicle
Mass (kg)
RCS (m²)

External: N2YO · Heavens-Above · Gunter

§ Orbital elements

Epoch: 2026-09-21T18:27:05.415552Z

Period
96.12 min
Inclination
97.7745°
Eccentricity
0.0002031
Mean motion
14.98108044 rev/d
Perigee alt
571.3 km
Apogee alt
574.2 km
Semi-major
6,950.9 km
B*
2.9375e-4
RAAN
19.1656°
Arg perigee
325.6049°
Mean anomaly
34.5042°
Rev number
6,839

§ Raw data

AE3VA1 64563U 25135AM  26264.76881268  .00003419  00000+0  29375-3 0  99912 64563  97.7745  19.1656 0002031 325.6049  34.5042 14.98108044 68391

JSON: /api/v1/satellites/64563 · /tle

For live sub-satellite position, see the globe view (requires WebGL).

§ Visibility from observer

Set your observer location to see the next 7 days of passes ≥ 10°. The values pass through the URL so the page stays shareable.

No JS? Fill the form by hand. The geolocation button needs JavaScript.